N474KC SCEL-SCSE

Flight info

Callsign N474KC
Flight time N/A
Altitude 24000
Route N0274F240 DONTI5B DONTI Q802 KUGAP KUGAP5
Aircraft PC12/L-SDFGRWY/S

Departure

Time 2026-05-03 22:20
Airport Comodoro Arturo Merino Benítez International Airport (SCEL)

Arrival

Time N/A
Airport La Florida Airport (SCSE)
Time Latitude Longitude Altitude Speed Heading
2026-05-03 21:42 -33.39221 -70.79204 1560 ft 0 kts
2026-05-03 22:12 -33.39210 -70.79197 1560 ft 5 kts 66°
2026-05-03 22:12 -33.39227 -70.79147 1560 ft 8 kts 176°
2026-05-03 22:12 -33.39279 -70.79146 1561 ft 7 kts 181°
2026-05-03 22:12 -33.39311 -70.79183 1561 ft 8 kts 258°
2026-05-03 22:13 -33.39317 -70.79256 1561 ft 10 kts 265°
2026-05-03 22:13 -33.39322 -70.79345 1561 ft 12 kts 265°
2026-05-03 22:13 -33.39327 -70.79443 1561 ft 12 kts 268°
2026-05-03 22:13 -33.39331 -70.79549 1561 ft 14 kts 268°
2026-05-03 22:14 -33.39334 -70.79667 1561 ft 15 kts 268°
2026-05-03 22:14 -33.39340 -70.79793 1561 ft 15 kts 266°
2026-05-03 22:14 -33.39344 -70.79921 1561 ft 16 kts 271°
2026-05-03 22:14 -33.39301 -70.80033 1562 ft 16 kts 319°
2026-05-03 22:15 -33.39192 -70.80062 1562 ft 17 kts 355°
2026-05-03 22:15 -33.39063 -70.80070 1563 ft 19 kts 357°
2026-05-03 22:15 -33.38926 -70.80078 1563 ft 19 kts 359°
2026-05-03 22:15 -33.38788 -70.80085 1563 ft 20 kts 358°
2026-05-03 22:16 -33.38648 -70.80093 1563 ft 21 kts 358°
2026-05-03 22:16 -33.38504 -70.80101 1563 ft 21 kts 358°
2026-05-03 22:16 -33.38356 -70.80109 1562 ft 22 kts 357°
2026-05-03 22:16 -33.38199 -70.80119 1562 ft 24 kts 358°
2026-05-03 22:17 -33.38000 -70.80128 1562 ft 32 kts 357°
2026-05-03 22:17 -33.37778 -70.80142 1562 ft 24 kts 359°
2026-05-03 22:17 -33.37584 -70.80151 1563 ft 31 kts 356°
2026-05-03 22:17 -33.37350 -70.80163 1563 ft 36 kts 358°
2026-05-03 22:18 -33.37177 -70.80172 1563 ft 9 kts 349°
2026-05-03 22:18 -33.37143 -70.80189 1563 ft 0 kts 319°
2026-05-03 22:18 -33.37125 -70.80212 1564 ft 9 kts 307°
2026-05-03 22:18 -33.37120 -70.80312 1569 ft 15 kts 243°
2026-05-03 22:19 -33.37240 -70.80362 1569 ft 32 kts 178°
2026-05-03 22:19 -33.37627 -70.80346 1569 ft 78 kts 178°
2026-05-03 22:19 -33.38274 -70.80306 1588 ft 108 kts 177°
2026-05-03 22:19 -33.39067 -70.80261 1846 ft 117 kts 180°
2026-05-03 22:20 -33.39914 -70.80257 2212 ft 127 kts 179°
2026-05-03 22:20 -33.40825 -70.80203 2587 ft 132 kts 179°
2026-05-03 22:20 -33.41741 -70.80147 2961 ft 133 kts 180°
2026-05-03 22:20 -33.42671 -70.80095 3336 ft 134 kts 179°
2026-05-03 22:21 -33.43621 -70.80043 3696 ft 139 kts 179°
2026-05-03 22:21 -33.44264 -70.80009 3939 ft 141 kts 179°
2026-05-03 22:21 -33.44916 -70.80051 4183 ft 142 kts 195°